PBO Station Position Time Series. Reference Frame : NAM14
Format Version,1.1.0
4-character ID,1LSU
Station name,Louisiana_St
Begin Date, 2003-04-23
End Date, 2019-10-07
Release Date, 2019-10-08
Reference position, 30.4074246663 North Latitude, -91.1802619440 East Longitude, -6.56052 meters elevation,
Date, North (mm), East (mm), Vertical (mm), North Std. Deviation (mm), East Std. Deviation (mm),              Vertical Std. Deviation (mm), Quality,
2003-04-23,0.00, 0.00, 0.00, 1.82, 1.75, 7.53, repro,
2003-04-24,1.57, -1.13, 1.94, 1.92, 1.93, 8.02, repro,
2003-04-25,-0.16, -0.36, 14.56, 2.02, 1.94, 8.69, repro,
2003-04-26,-0.50, -1.19, -4.48, 1.84, 1.78, 7.71, repro,
2003-04-27,-0.87, -1.92, -2.89, 1.80, 1.74, 7.48, repro,
2003-04-28,-2.01, -2.20, -2.17, 1.90, 1.81, 7.95, repro,
2003-04-29,-1.43, -0.92, -4.00, 1.82, 1.76, 7.63, repro,
2003-04-30,-0.55, -1.87, -9.78, 1.87, 1.85, 7.99, repro,
2003-05-01,-1.04, -2.77, -6.69, 1.84, 1.80, 7.80, repro,
2003-05-02,-1.19, -0.42, -5.41, 1.85, 1.80, 7.71, repro,
2003-05-03,-2.06, -2.23, -8.33, 1.89, 1.78, 7.75, repro,
2003-05-04,-2.35, -3.33, 3.89, 1.90, 1.84, 7.81, repro,
2003-05-05,-2.23, -3.64, -3.68, 1.85, 1.80, 7.71, repro,
2003-05-06,-1.66, -3.18, -2.59, 1.88, 1.81, 7.71, repro,
2003-05-07,-1.33, -0.83, 4.96, 1.96, 1.95, 8.01, repro,
2003-05-08,-1.72, -2.84, -11.19, 1.92, 1.86, 7.90, repro,
2003-05-09,-2.45, -1.92, -5.28, 1.92, 1.87, 7.92, repro,
2003-05-10,-0.44, -2.98, -8.11, 1.85, 1.77, 7.60, repro,
2003-05-11,-2.41, -2.25, -1.20, 1.85, 1.78, 7.69, repro,
2003-05-12,1.86, -1.88, -8.36, 1.89, 1.84, 7.90, repro,
2003-05-13,-0.49, -0.85, -8.00, 1.88, 1.85, 7.87, repro,
2003-05-14,-2.47, -1.66, -9.97, 1.92, 1.90, 8.22, repro,
2003-05-15,-2.35, -3.31, -14.36, 1.97, 2.00, 8.33, repro,
2003-05-16,-0.77, -2.23, -11.13, 1.84, 1.82, 7.72, repro,
2003-05-17,-1.78, -0.86, -1.98, 1.91, 1.82, 7.89, repro,
2003-05-18,0.70, 0.19, 3.37, 2.20, 2.37, 9.55, repro,
2003-05-19,-0.31, -3.40, 2.96, 1.89, 1.81, 7.92, repro,
2003-05-20,-2.98, 2.62, -9.15, 2.67, 2.89, 11.15, repro,
2003-06-07,-0.87, 1.64, 12.89, 3.05, 2.73, 13.33, repro,
2003-06-08,0.62, 1.69, 1.98, 1.94, 1.92, 8.12, repro,
2003-06-09,1.62, -0.60, -4.99, 1.91, 1.86, 8.02, repro,
2003-06-10,1.76, 2.39, 11.39, 2.15, 2.12, 8.68, repro,
2003-06-11,1.72, 3.45, 15.22, 2.06, 2.09, 8.73, repro,
2003-06-12,-0.74, 0.19, -1.76, 2.02, 2.01, 8.50, repro,
2003-06-13,0.67, 4.24, -5.84, 1.88, 1.89, 7.97, repro,
2003-06-14,-0.81, -2.04, 11.18, 1.89, 1.88, 8.01, repro,
2003-06-15,-2.85, 0.36, 0.76, 2.23, 2.11, 8.99, repro,
2003-06-16,0.10, 1.51, -1.25, 2.20, 2.00, 8.92, repro,
2003-06-17,-0.57, 0.04, 4.96, 1.92, 1.86, 7.97, repro,
2003-06-18,-0.85, 0.53, 4.15, 1.90, 1.90, 8.02, repro,
2003-06-19,-1.86, -0.77, -0.46, 1.96, 1.93, 8.48, repro,
2003-06-20,-2.22, 2.82, 20.29, 1.92, 1.86, 8.02, repro,
2003-06-21,1.03, 1.00, 4.39, 2.00, 1.99, 8.61, repro,
2003-06-22,-0.63, -1.21, 3.44, 1.89, 1.83, 7.91, repro,
2003-06-23,-0.73, -0.65, -2.76, 1.95, 1.83, 8.07, repro,
2003-06-24,1.88, 0.46, -10.21, 2.27, 2.21, 9.65, repro,
2003-06-25,0.15, -0.31, -9.05, 2.11, 2.09, 8.65, repro,
2003-06-26,-1.71, -1.46, -6.11, 2.13, 2.32, 9.01, repro,
2003-06-27,0.82, 1.35, 4.83, 2.00, 2.04, 8.47, repro,
2003-06-28,-0.77, 1.24, -11.87, 1.91, 2.00, 8.23, repro,
2003-06-29,-1.40, 3.04, 2.50, 1.99, 1.95, 8.24, repro,
2003-06-30,-2.20, 1.49, -9.90, 1.83, 1.76, 7.73, repro,
2003-07-01,-0.79, 2.12, 2.62, 1.92, 1.88, 8.01, repro,
2003-07-02,-0.76, 1.16, -5.75, 1.92, 1.89, 8.03, repro,
2003-07-03,-1.43, 0.80, 5.45, 1.97, 1.90, 8.68, repro,
2003-07-04,-0.47, 1.92, 4.01, 1.87, 1.80, 7.96, repro,
2003-07-05,-1.15, 0.13, 3.34, 1.93, 1.91, 8.38, repro,
2003-07-06,-1.04, 0.68, -2.27, 1.90, 1.79, 7.96, repro,
2003-07-07,0.45, 1.85, -3.32, 1.99, 2.03, 8.55, repro,
2003-07-08,-0.13, -0.76, -12.20, 1.92, 1.91, 8.13, repro,
2003-07-09,2.16, -1.17, -11.07, 1.93, 1.90, 8.05, repro,
2003-07-10,-0.06, -2.41, -2.77, 2.21, 2.37, 9.62, repro,
2003-07-11,-0.70, -1.09, 2.31, 2.16, 2.30, 8.99, repro,
2003-07-12,-1.45, -2.95, -5.66, 2.30, 2.30, 9.49, repro,
2003-07-13,-0.71, -0.20, -3.68, 1.89, 1.86, 7.88, repro,
2003-07-14,-1.82, -3.50, -9.29, 2.11, 2.32, 9.11, repro,
2003-07-15,-2.08, 0.60, 3.88, 1.96, 1.94, 8.20, repro,
2003-07-16,-0.40, -0.34, 5.82, 2.30, 2.50, 10.00, repro,
2003-07-17,-2.51, -3.43, -19.44, 2.07, 2.04, 8.79, repro,
2003-07-18,-4.88, -2.54, -7.82, 2.18, 2.10, 8.98, repro,
2003-07-19,-3.10, -0.12, -13.56, 2.07, 2.09, 8.95, repro,
2003-07-20,-3.40, -0.74, -6.90, 1.91, 1.89, 8.00, repro,
2003-07-21,-2.16, -1.68, 0.57, 1.95, 1.99, 8.25, repro,
2003-07-22,0.12, -4.19, 0.49, 2.07, 2.06, 8.86, repro,
2003-07-23,-1.65, -1.42, -4.39, 2.00, 1.89, 8.21, repro,
2003-07-24,-2.91, -2.13, -8.91, 1.95, 1.91, 8.16, repro,
2003-07-25,-0.36, -3.14, -10.01, 2.09, 2.20, 8.89, repro,
2003-07-26,-0.84, -3.91, -4.97, 2.11, 2.23, 8.87, repro,
2003-07-27,-2.71, -1.56, -10.54, 1.97, 1.89, 8.31, repro,
2003-07-28,-2.04, -2.10, -6.96, 1.95, 1.88, 8.41, repro,
2003-07-29,-1.42, -3.22, 4.12, 1.90, 1.85, 8.06, repro,
2003-07-30,-3.31, -3.69, -8.99, 1.90, 1.86, 8.00, repro,
2003-07-31,-3.92, -3.16, -7.52, 2.10, 2.23, 9.26, repro,
2003-08-01,-0.93, -2.07, -6.93, 2.14, 2.12, 9.40, repro,
2003-08-02,-3.19, -2.71, -8.29, 1.92, 1.83, 8.19, repro,
2003-08-03,-2.41, -4.24, 1.11, 2.18, 2.21, 9.55, repro,
2003-08-04,-4.70, -2.75, -6.04, 1.99, 1.98, 8.72, repro,
2003-08-05,-4.60, -3.68, -7.02, 1.83, 1.77, 7.66, repro,
2003-08-06,-3.16, -4.89, -7.79, 1.84, 1.77, 7.78, repro,
2003-08-07,-3.61, -2.21, 0.75, 1.91, 1.89, 8.18, repro,
2003-08-08,-3.49, -0.47, -2.51, 1.86, 1.77, 7.75, repro,
2003-08-09,-3.91, -3.88, -2.30, 2.01, 2.02, 8.58, repro,
2003-08-10,-2.70, -4.92, 0.94, 1.91, 1.87, 7.93, repro,
2003-08-11,-3.74, -4.54, -7.06, 1.83, 1.77, 7.75, repro,
2003-08-12,-2.05, -4.04, -5.64, 1.96, 1.94, 8.17, repro,
2003-08-13,-2.67, -1.63, -17.86, 1.82, 1.76, 7.65, repro,
2003-08-14,-2.63, -2.70, -16.61, 1.83, 1.77, 7.67, repro,
2003-08-15,-2.91, -5.58, -12.86, 1.86, 1.81, 7.86, repro,
2003-08-16,-1.34, -4.82, -1.49, 1.95, 1.87, 8.07, repro,
2003-08-17,-4.20, -3.29, -8.78, 1.96, 1.90, 8.20, repro,
2003-08-18,-2.59, -3.59, -7.29, 1.97, 1.92, 8.44, repro,
2003-08-19,-2.19, -5.68, -8.64, 1.96, 1.88, 8.30, repro,
2003-08-20,-4.37, -6.06, -13.89, 2.19, 2.01, 9.05, repro,
2003-08-21,-2.55, -2.87, -8.05, 2.26, 2.11, 9.58, repro,
2003-08-22,-3.65, -2.19, -19.91, 2.09, 1.90, 8.79, repro,
2003-08-23,-3.24, -2.03, -14.28, 1.94, 1.81, 8.38, repro,
2003-08-24,-5.39, -3.94, -8.35, 2.32, 2.17, 9.80, repro,
2003-08-25,-3.43, -3.89, -14.09, 1.83, 1.77, 7.67, repro,
2003-08-26,-3.46, -6.09, -3.33, 1.84, 1.79, 7.78, repro,
2003-08-27,-4.26, -5.42, 1.48, 2.33, 2.17, 9.69, repro,
2003-08-28,-6.07, -5.47, -8.97, 2.00, 1.98, 8.62, repro,
2003-08-29,-3.62, -4.98, -14.62, 1.82, 1.77, 7.69, repro,
2003-08-30,-4.00, -3.96, -13.07, 1.90, 1.87, 8.00, repro,
2003-08-31,-4.17, -3.61, -21.96, 2.05, 2.02, 8.59, repro,
2003-09-01,-7.87, 0.64, 3.18, 2.13, 2.24, 9.25, repro,
2003-09-02,-4.10, -2.15, -8.12, 1.96, 1.91, 8.23, repro,
2003-09-03,-6.61, -4.15, -17.35, 1.95, 1.88, 8.27, repro,
2003-09-04,-3.54, -1.93, -8.41, 1.89, 1.80, 8.05, repro,
2003-09-05,-5.97, -4.36, -5.31, 1.86, 1.78, 7.76, repro,
2003-09-06,-5.05, -4.06, -5.92, 1.88, 1.80, 7.97, repro,
2003-09-07,-4.00, -3.47, -6.80, 1.88, 1.84, 7.79, repro,
2003-09-08,-3.87, -4.59, -7.43, 1.96, 1.83, 8.15, repro,
2003-09-09,-2.95, -3.93, -19.32, 1.92, 1.91, 8.07, repro,
2003-09-10,-4.13, -5.26, -3.13, 1.94, 1.88, 8.39, repro,
2003-09-11,-3.18, -2.19, -7.70, 1.95, 1.88, 8.22, repro,
2003-09-12,-1.93, -2.55, -3.07, 2.07, 1.94, 8.61, repro,
2003-09-13,-5.25, -0.60, 1.60, 1.97, 1.99, 8.28, repro,
2003-09-14,-5.73, -0.25, -4.49, 1.83, 1.78, 7.67, repro,
2003-09-15,-4.08, -2.66, -2.65, 1.92, 1.86, 8.20, repro,
2003-09-16,-3.75, -2.41, -4.76, 1.91, 1.81, 8.01, repro,
2003-09-17,-3.23, -1.79, -4.25, 1.86, 1.80, 7.75, repro,
2003-09-18,-3.11, -0.83, -2.19, 1.87, 1.80, 7.92, repro,
2003-09-19,-3.54, -1.71, -8.32, 1.92, 1.85, 8.11, repro,
2003-09-20,-2.61, -2.39, -9.39, 1.95, 1.85, 8.26, repro,
2003-09-21,-3.53, -1.62, -2.23, 1.93, 1.82, 8.11, repro,
2003-09-22,-4.44, -1.14, -1.71, 1.97, 1.90, 8.39, repro,
2003-09-23,-3.44, -1.32, -9.13, 1.94, 1.88, 8.15, repro,
2003-09-24,-3.19, -2.68, -17.65, 1.98, 1.90, 8.40, repro,
2003-09-25,-3.58, -2.57, -1.27, 1.92, 1.89, 8.02, repro,
2003-09-26,-2.57, -3.93, -9.62, 2.09, 1.99, 8.93, repro,
2003-09-27,-3.67, -3.07, -5.83, 2.03, 1.92, 8.69, repro,
2003-09-28,-6.17, -4.44, -1.20, 1.95, 1.84, 8.15, repro,
2003-09-29,-4.56, -3.46, -14.25, 2.13, 1.99, 9.10, repro,
2003-09-30,-5.17, -3.01, -20.35, 2.08, 1.94, 8.81, repro,
2003-10-01,-4.71, -1.66, -16.79, 1.93, 1.82, 8.09, repro,
2003-10-02,-4.83, -2.42, -10.63, 1.96, 1.92, 8.43, repro,
2003-10-03,-4.58, -1.59, -14.10, 1.88, 1.81, 7.93, repro,
2003-10-04,-4.06, -1.95, -9.18, 2.10, 1.97, 8.76, repro,
2003-10-05,-5.66, -2.50, -8.46, 1.90, 1.85, 8.04, repro,
2003-10-06,-4.52, -2.73, -13.96, 1.97, 1.90, 8.30, repro,
2003-10-07,-5.69, -3.46, -5.20, 2.08, 1.94, 8.86, repro,
2003-10-08,-3.77, -1.75, -16.09, 2.02, 1.92, 8.66, repro,
2003-10-09,-3.77, -2.39, -5.80, 1.89, 1.78, 7.98, repro,
2003-10-10,-4.32, -2.12, -10.50, 1.93, 1.89, 8.32, repro,
2003-10-11,-6.62, -2.50, -11.11, 1.86, 1.76, 7.78, repro,
2003-10-12,-5.85, -2.02, -14.46, 2.00, 2.00, 8.51, repro,
2003-10-13,-3.56, -2.30, -11.44, 1.88, 1.79, 7.90, repro,
2003-10-14,-4.92, -3.92, -9.73, 1.89, 1.78, 7.93, repro,
2003-10-15,-4.21, -2.35, -13.62, 1.89, 1.78, 7.94, repro,
2003-10-16,-4.93, -2.12, -17.47, 1.81, 1.73, 7.51, repro,
2003-10-17,-5.80, -2.64, -13.35, 1.97, 1.85, 8.35, repro,
2003-10-18,-5.25, -2.45, -16.36, 1.87, 1.78, 7.79, repro,
2003-10-19,-5.76, -2.39, -16.25, 1.88, 1.76, 7.86, repro,
2003-10-20,-4.39, -2.95, -18.91, 1.93, 1.79, 8.02, repro,
2003-10-21,-5.79, -3.44, -16.12, 1.82, 1.72, 7.50, repro,
2003-10-22,-4.32, -4.18, -16.65, 1.96, 1.90, 8.04, repro,
2003-10-23,-5.27, -2.69, -15.79, 1.86, 1.78, 7.76, repro,
2003-10-24,-5.35, -3.78, -18.42, 2.02, 1.89, 8.36, repro,
2003-10-25,-7.19, -3.07, -10.40, 1.88, 1.82, 7.82, repro,
2003-10-26,-3.97, -3.02, -18.04, 1.89, 1.76, 7.84, repro,
2003-10-27,-4.60, -2.65, -22.03, 1.86, 1.80, 7.63, repro,
2003-10-28,-6.04, -2.29, -12.99, 1.89, 1.86, 7.87, repro,
2003-10-29,-5.48, -1.93, -16.63, 2.08, 1.98, 8.40, repro,
2003-10-30,-5.45, -3.09, -16.01, 2.25, 2.13, 9.23, repro,
2003-10-31,-5.50, -3.36, -25.19, 1.95, 1.88, 8.16, repro,
2003-11-01,-4.75, -2.34, -18.32, 1.84, 1.74, 7.57, repro,
2003-11-02,-5.83, -5.15, -21.71, 1.90, 1.84, 7.83, repro,
2003-11-03,-5.72, -5.01, -22.32, 1.87, 1.77, 7.59, repro,
2003-11-04,-5.11, -3.95, -17.90, 1.88, 1.79, 7.70, repro,
2003-11-05,-5.51, -3.45, -21.58, 1.87, 1.78, 7.67, repro,
2003-11-06,-3.86, -3.11, -20.79, 1.84, 1.74, 7.55, repro,
2003-11-07,-5.47, -4.48, -19.40, 1.88, 1.79, 7.67, repro,
2003-11-08,-4.78, -4.14, -27.92, 1.95, 1.93, 7.95, repro,
2003-11-09,-4.27, -3.12, -25.41, 1.87, 1.78, 7.70, repro,
2003-11-10,-5.60, -3.61, -23.08, 1.93, 1.84, 7.83, repro,
2003-11-11,-5.56, -3.67, -19.73, 1.92, 1.83, 7.81, repro,
2003-11-12,-4.87, -3.40, -21.18, 1.88, 1.80, 7.70, repro,
2003-11-13,-3.86, -4.43, -23.18, 1.98, 1.96, 8.32, repro,
2003-11-14,-4.52, -2.61, -16.05, 1.98, 1.89, 8.23, repro,
2003-11-15,-4.89, -2.36, -18.70, 1.89, 1.78, 7.76, repro,
2003-11-16,-4.87, -2.16, -22.06, 1.99, 1.88, 8.03, repro,
2003-11-17,-4.95, -3.12, -24.26, 2.00, 2.06, 8.37, repro,
2003-11-18,-3.65, -2.77, -17.29, 2.13, 2.10, 9.00, repro,
2003-11-19,-3.45, -2.61, -15.71, 1.85, 1.79, 7.57, repro,
2003-11-20,-3.71, -1.90, -17.86, 1.97, 1.86, 8.11, repro,
2003-11-21,-5.17, -1.97, -18.76, 2.01, 2.01, 8.40, repro,
2003-11-22,-4.18, -2.46, -20.90, 1.97, 1.86, 7.93, repro,
2003-11-23,-4.30, -2.00, -22.28, 1.97, 1.87, 7.98, repro,
2003-11-24,-3.00, -3.60, -22.66, 1.95, 1.91, 8.12, repro,
2003-11-25,-3.84, -0.46, -19.63, 1.97, 1.93, 8.00, repro,
2003-11-26,-3.98, -0.06, -12.79, 1.81, 1.73, 7.49, repro,
2003-11-27,-3.43, -1.20, -23.31, 1.89, 1.81, 7.88, repro,
2003-11-28,-4.99, 1.09, -27.83, 1.91, 1.82, 7.72, repro,
2003-11-29,-3.63, 1.08, -24.72, 1.92, 1.82, 7.77, repro,
2003-11-30,-2.29, 1.63, -26.07, 1.85, 1.78, 7.63, repro,
2003-12-01,-2.59, 1.02, -28.09, 1.85, 1.79, 7.70, repro,
2003-12-02,-2.47, 2.05, -21.77, 2.05, 2.00, 8.48, repro,
2003-12-03,-1.60, 0.29, -24.77, 2.01, 1.91, 8.14, repro,
2003-12-04,-2.97, 1.43, -24.66, 1.94, 1.84, 8.01, repro,
2003-12-05,-1.80, 1.51, -24.30, 1.89, 1.81, 7.86, repro,
2003-12-06,-1.23, 2.02, -15.40, 2.18, 2.23, 9.23, repro,
2003-12-07,-2.30, 2.57, -19.11, 1.85, 1.76, 7.56, repro,
2003-12-08,-3.59, 2.91, -15.66, 1.91, 1.83, 7.70, repro,
2003-12-09,-2.25, 1.93, -16.09, 1.82, 1.77, 7.60, repro,
2003-12-10,-1.89, 2.90, -12.51, 2.00, 1.83, 8.20, repro,
2003-12-11,-2.34, 3.55, -10.30, 2.08, 2.00, 8.20, repro,
2003-12-12,-2.27, 2.52, -17.80, 1.88, 1.81, 7.71, repro,
2003-12-13,-3.00, 3.86, -12.48, 1.85, 1.79, 7.59, repro,
2003-12-14,-1.26, 2.35, -14.74, 2.06, 1.97, 8.38, repro,
2003-12-15,-3.51, 3.24, -14.95, 1.91, 1.82, 7.69, repro,
2003-12-16,-0.83, 1.20, -15.19, 1.93, 1.91, 7.81, repro,
2003-12-17,-0.57, 1.20, -18.81, 1.95, 1.91, 7.84, repro,
2003-12-18,-1.49, 2.11, -23.43, 1.96, 1.84, 7.85, repro,
2003-12-19,-0.61, 1.97, -16.27, 2.10, 2.02, 8.52, repro,
2003-12-20,-0.60, 1.97, -19.83, 2.04, 1.95, 8.37, repro,
2003-12-21,-0.13, 2.43, -20.39, 2.09, 2.04, 8.46, repro,
2003-12-22,-1.58, 0.63, -22.01, 1.95, 1.90, 7.97, repro,
2003-12-23,-2.92, -0.28, -8.75, 1.95, 1.86, 8.14, repro,
2003-12-24,-1.32, 1.30, -13.40, 2.22, 2.29, 9.11, repro,
2003-12-25,-0.70, 1.36, -9.92, 2.15, 2.14, 8.94, repro,
2003-12-26,-0.28, 1.98, -13.11, 1.89, 1.82, 7.95, repro,
2003-12-27,-1.45, 2.59, -14.09, 1.91, 1.91, 8.05, repro,
2003-12-28,-0.96, 1.34, -14.63, 1.88, 1.85, 7.84, repro,
2003-12-29,-0.02, 2.11, -16.16, 1.91, 1.84, 8.00, repro,
2003-12-30,0.03, 1.82, -23.98, 1.84, 1.76, 7.59, repro,
2003-12-31,-1.04, 1.75, -22.44, 1.85, 1.77, 7.63, repro,
2004-01-01,-0.37, 2.53, -15.95, 1.90, 1.81, 7.95, repro,
2004-01-02,-2.11, 1.29, -13.19, 1.92, 1.84, 7.94, repro,
2004-01-03,-1.75, 0.92, -12.69, 1.95, 1.86, 8.16, repro,
2004-01-04,-0.88, 1.51, -11.99, 1.94, 1.84, 7.93, repro,
2004-01-05,-1.67, 0.98, -14.06, 1.96, 1.87, 8.17, repro,
2004-01-06,-0.12, 1.15, -19.64, 1.95, 1.82, 8.12, repro,
2004-01-07,0.28, 3.14, -21.28, 1.90, 1.82, 7.91, repro,
2004-01-08,-0.43, 2.74, -20.61, 1.96, 1.86, 8.16, repro,
2004-01-09,0.26, 2.67, -25.45, 1.92, 1.83, 7.88, repro,
2004-01-10,0.34, 3.42, -24.39, 1.83, 1.76, 7.55, repro,
2004-01-11,-0.18, 3.97, -21.15, 1.94, 1.87, 7.96, repro,
2004-01-12,-0.71, 2.62, -24.74, 2.06, 1.98, 8.52, repro,
2004-01-13,0.64, 3.12, -17.29, 1.98, 2.01, 8.17, repro,
2004-01-14,0.97, 2.84, -19.52, 1.95, 1.97, 7.93, repro,
2004-01-15,-0.19, 2.08, -13.04, 1.86, 1.84, 7.71, repro,
2004-01-16,-0.60, 1.98, -9.93, 1.97, 1.98, 8.33, repro,
2004-01-17,-1.47, 1.48, -10.85, 1.89, 1.83, 7.91, repro,
2004-01-18,-2.02, 1.70, -11.26, 1.95, 1.91, 8.15, repro,
2004-01-19,0.14, 3.46, -12.82, 1.86, 1.80, 7.75, repro,
2004-01-20,0.79, 3.84, -15.18, 1.93, 1.86, 8.11, repro,
2004-01-21,0.70, 2.79, -17.62, 1.94, 1.91, 8.19, repro,
2004-01-22,1.57, 4.00, -14.67, 1.92, 1.89, 8.10, repro,
2004-01-23,1.33, 3.77, -11.46, 1.85, 1.78, 7.75, repro,
2004-01-24,-0.18, 4.13, -11.09, 1.98, 1.99, 8.16, repro,
2004-01-25,-0.92, 4.59, 0.78, 1.94, 1.87, 8.23, repro,
2004-01-26,-0.91, 3.13, -10.42, 1.91, 1.92, 7.95, repro,
2004-01-27,1.24, 3.90, -13.18, 1.82, 1.78, 7.58, repro,
2004-01-28,2.80, 3.86, -17.67, 2.03, 1.93, 8.73, repro,
2004-01-29,2.08, 3.64, -12.42, 1.97, 1.94, 8.51, repro,
2004-01-30,1.59, 2.35, -14.12, 1.93, 1.90, 7.92, repro,
2004-01-31,0.71, 3.26, -18.85, 1.83, 1.79, 7.73, repro,
2004-02-01,1.62, 3.22, -11.77, 1.80, 1.79, 7.56, repro,
2004-02-02,0.50, 3.87, -16.34, 1.79, 1.72, 7.43, repro,
2004-02-03,2.09, 3.28, -17.02, 1.88, 1.80, 7.85, repro,
2004-02-04,2.01, 2.01, -18.04, 1.96, 1.89, 8.00, repro,
2004-02-05,0.39, 6.26, -11.49, 1.86, 1.80, 7.77, repro,
2004-02-06,3.00, 0.27, -20.75, 1.88, 1.87, 7.90, repro,
2004-02-07,1.25, 1.87, -26.01, 1.87, 1.80, 7.89, repro,
2004-02-08,1.86, 2.30, -21.84, 1.82, 1.77, 7.56, repro,
2004-02-09,0.93, 1.91, -20.44, 1.79, 1.71, 7.38, repro,
2004-02-10,0.90, 0.60, -14.98, 1.83, 1.73, 7.52, repro,
2004-02-11,0.86, 2.39, -19.02, 1.77, 1.71, 7.33, repro,
2004-02-12,2.49, 1.56, -10.36, 1.88, 1.77, 7.68, repro,
2004-02-13,1.73, 4.11, -10.88, 1.88, 1.76, 7.61, repro,
2004-02-14,0.99, 2.17, -14.99, 1.79, 1.69, 7.31, repro,
2004-02-15,0.06, 3.85, -13.77, 1.96, 1.80, 7.78, repro,
2004-02-16,1.11, 4.06, -17.77, 1.88, 1.77, 7.65, repro,
2004-02-17,0.63, 3.55, -21.42, 1.88, 1.77, 7.65, repro,
2004-02-18,2.15, 4.45, -11.66, 1.82, 1.72, 7.49, repro,
2004-02-19,1.69, 3.93, -8.53, 1.82, 1.73, 7.50, repro,
2004-02-20,1.08, 3.57, -1.56, 1.83, 1.72, 7.47, repro,
2004-02-21,2.03, 2.86, -0.71, 1.82, 1.73, 7.51, repro,
2004-02-22,1.19, 3.36, -7.87, 1.87, 1.74, 7.76, repro,
2004-02-23,2.51, 4.60, -6.51, 1.93, 1.82, 8.09, repro,
2004-02-24,2.04, 3.43, -12.29, 1.90, 1.81, 7.87, repro,
2004-02-25,1.26, 5.79, -0.12, 1.97, 1.89, 7.98, repro,
2004-02-26,1.27, 4.22, -5.65, 1.87, 1.74, 7.70, repro,
2004-02-27,2.09, 5.23, -7.12, 1.88, 1.74, 7.74, repro,
2004-02-28,1.56, 4.01, -13.30, 1.87, 1.76, 7.77, repro,
2004-02-29,1.29, 3.50, -6.97, 1.86, 1.75, 7.69, repro,
2004-03-01,-0.37, 4.27, -3.73, 1.89, 1.80, 7.93, repro,
2004-03-02,0.74, 3.25, -9.47, 1.92, 1.81, 7.92, repro,
2004-03-03,1.58, 1.73, -7.83, 1.97, 1.84, 8.08, repro,
2004-03-04,0.44, 1.02, 1.46, 1.93, 1.81, 8.01, repro,
2004-03-05,-0.38, 1.87, -1.84, 1.88, 1.80, 7.95, repro,
2004-03-06,-0.88, 0.51, -7.49, 2.25, 2.26, 9.72, repro,
2004-03-07,0.47, 0.15, -11.68, 1.87, 1.78, 7.82, repro,
2004-03-08,0.93, 0.69, -8.77, 1.90, 1.81, 8.04, repro,
2004-03-09,1.05, 2.18, -4.46, 1.95, 1.80, 8.23, repro,
2004-03-10,1.15, 1.90, -10.55, 1.87, 1.77, 7.85, repro,
2004-03-11,1.52, 2.44, -9.27, 1.86, 1.76, 7.77, repro,
2004-03-12,0.31, 1.21, -8.33, 1.89, 1.82, 8.06, repro,
2004-03-13,0.28, 1.80, -10.50, 1.90, 1.83, 8.07, repro,
2004-03-14,0.12, 2.40, -14.36, 1.93, 1.85, 8.12, repro,
2004-03-15,0.17, 3.95, -15.38, 1.90, 1.82, 8.09, repro,
2004-03-16,0.59, 2.10, -6.60, 1.88, 1.79, 7.87, repro,
2004-03-17,0.79, 1.22, -5.01, 2.04, 1.98, 8.70, repro,
2004-03-18,0.48, 0.81, -9.32, 1.92, 1.81, 7.95, repro,
2004-03-19,0.67, 2.61, -14.96, 1.94, 1.83, 8.03, repro,
2004-03-20,0.63, 1.28, -16.09, 1.95, 1.89, 8.27, repro,
2004-03-21,0.65, 1.71, -22.74, 1.93, 1.82, 7.99, repro,
2004-03-22,1.06, 3.61, -15.41, 1.88, 1.78, 7.84, repro,
2004-03-23,1.30, 2.76, -15.10, 1.89, 1.83, 8.09, repro,
2004-03-24,-0.37, 3.29, -6.52, 1.88, 1.84, 8.07, repro,
2004-03-25,1.63, 3.46, -6.22, 1.90, 1.85, 8.13, repro,
2004-03-26,1.93, 2.79, -4.90, 1.87, 1.78, 7.84, repro,
2004-03-27,2.31, 4.14, -8.37, 1.88, 1.78, 7.83, repro,
2004-03-28,1.41, 2.19, -6.73, 1.88, 1.75, 7.73, repro,
2004-03-29,1.11, 2.21, -6.47, 2.16, 2.07, 8.95, repro,
2004-03-30,0.80, 2.32, -5.86, 1.91, 1.81, 8.01, repro,
2004-03-31,1.44, 2.99, -5.16, 1.85, 1.75, 7.69, repro,
2004-04-01,0.63, 1.69, -4.04, 1.89, 1.82, 8.04, repro,
2004-04-02,0.62, 1.79, -3.39, 1.85, 1.74, 7.70, repro,
2004-04-03,0.83, 1.39, -6.87, 1.87, 1.76, 7.74, repro,
2004-04-04,1.11, 0.67, -0.82, 1.83, 1.71, 7.57, repro,
2004-04-05,0.87, 0.06, -9.55, 1.84, 1.72, 7.66, repro,
2004-04-06,-0.00, 1.22, -10.75, 1.84, 1.72, 7.61, repro,
2004-04-07,0.54, 1.26, -6.36, 1.98, 1.88, 8.16, repro,
2004-04-08,-0.21, 0.73, -1.59, 1.86, 1.74, 7.75, repro,
2004-04-09,0.34, -0.21, -8.27, 1.84, 1.72, 7.61, repro,
2004-04-10,-0.83, 0.63, -6.26, 1.85, 1.72, 7.65, repro,
2004-04-11,-0.60, 1.35, -3.61, 1.90, 1.78, 7.90, repro,
2004-04-12,-0.99, 2.81, -4.22, 1.85, 1.72, 7.65, repro,
2004-04-13,-0.34, 2.82, -5.46, 1.91, 1.77, 7.79, repro,
2004-04-14,-0.36, 2.33, -8.47, 1.91, 1.77, 7.82, repro,
2004-04-15,0.40, 2.16, -10.40, 1.85, 1.72, 7.62, repro,
2004-04-16,0.47, 1.87, -8.85, 1.90, 1.78, 7.91, repro,
2004-04-17,-0.43, 0.45, -6.66, 1.97, 1.90, 8.12, repro,
2004-04-18,-0.14, 0.25, -9.67, 1.95, 1.85, 8.01, repro,
2004-04-19,-0.28, 0.61, -11.94, 1.89, 1.76, 7.83, repro,
2004-04-20,-1.10, 0.15, -10.12, 1.88, 1.75, 7.77, repro,
2004-04-21,-0.70, 0.18, 1.23, 1.88, 1.73, 7.76, repro,
2004-04-22,1.26, -0.08, -0.46, 1.90, 1.79, 7.92, repro,
2004-04-23,-1.26, -1.18, -5.85, 1.91, 1.83, 8.05, repro,
2004-04-24,-0.12, -0.81, -1.86, 1.92, 1.81, 8.01, repro,
2004-04-25,-2.29, 2.54, -3.42, 1.92, 1.82, 8.01, repro,
2004-04-26,0.18, 0.85, -18.34, 1.91, 1.83, 8.09, repro,
2004-04-27,-0.68, 0.27, -6.81, 2.15, 1.99, 8.94, repro,
2004-04-28,-0.68, -0.60, -4.56, 1.97, 1.93, 8.29, repro,
2004-04-29,-1.16, 2.84, -2.07, 1.94, 1.86, 8.24, repro,
2004-04-30,-2.02, 4.23, -4.62, 2.00, 1.89, 8.47, repro,
2004-05-01,-0.29, 4.85, -9.05, 2.08, 2.06, 8.67, repro,
2004-05-02,-0.12, 2.97, -11.89, 2.12, 2.10, 8.69, repro,
2004-05-03,0.07, 3.86, -14.74, 2.08, 1.98, 8.51, repro,
2004-05-04,1.23, 1.46, -5.51, 2.23, 2.03, 9.09, repro,
2004-05-05,0.17, 2.85, -4.36, 2.11, 1.91, 8.74, repro,
2004-05-06,0.32, 0.42, -7.64, 1.92, 1.81, 8.16, repro,
2004-05-07,0.13, -1.27, -2.23, 2.02, 1.88, 8.43, repro,
2004-05-08,1.50, 0.78, -11.77, 2.03, 1.90, 8.47, repro,
2004-05-09,0.92, 3.09, -9.22, 2.05, 1.96, 8.56, repro,
2004-05-10,1.65, 1.70, 1.37, 2.03, 1.90, 8.87, repro,
2004-05-11,0.98, 0.80, -9.13, 1.99, 2.00, 8.58, repro,
2004-05-12,1.72, 3.66, -4.79, 2.02, 1.97, 8.78, repro,
2004-05-13,-0.16, 1.20, -9.79, 2.19, 1.94, 8.99, repro,
2004-05-14,1.01, 3.69, 0.57, 1.95, 1.83, 8.25, repro,
2004-05-15,3.79, 0.73, -12.42, 1.96, 1.87, 8.20, repro,
2004-05-16,0.04, 3.04, -0.80, 2.16, 2.11, 9.09, repro,
2004-05-17,-1.22, 1.32, -5.01, 1.95, 1.81, 7.97, repro,
2004-05-18,0.31, 2.33, -4.29, 2.17, 2.02, 9.02, repro,
2004-05-19,0.74, 3.29, -5.53, 2.08, 1.98, 8.40, repro,
2004-05-20,-0.71, 2.99, -6.45, 1.94, 1.81, 7.88, repro,
2004-05-21,1.01, -1.97, 2.39, 2.16, 2.05, 9.22, repro,
2004-05-22,0.25, 1.16, -0.21, 1.85, 1.74, 7.65, repro,
2004-05-23,0.20, 2.60, -4.98, 1.85, 1.75, 7.65, repro,
2004-05-24,-1.10, 1.26, -0.76, 1.86, 1.74, 7.68, repro,
2004-05-25,-0.54, 1.92, -2.13, 1.91, 1.77, 7.71, repro,
2004-05-26,-1.63, -0.78, -2.34, 1.87, 1.75, 7.71, repro,
2004-05-27,-0.24, -0.72, 9.49, 1.88, 1.78, 7.69, repro,
2004-05-28,0.94, -0.74, 2.40, 1.89, 1.80, 7.77, repro,
2004-05-29,-0.01, -0.92, 9.73, 1.86, 1.75, 7.71, repro,
2004-05-30,-0.51, -2.45, 5.08, 1.84, 1.73, 7.57, repro,
2004-05-31,-0.65, -1.97, 6.31, 1.94, 1.81, 8.26, repro,
2004-06-01,-1.45, -2.65, 2.35, 1.92, 1.82, 7.94, repro,
2004-06-02,-0.43, -0.71, 1.50, 2.02, 2.02, 8.50, repro,
2004-06-03,-2.34, -0.04, -5.81, 2.04, 1.88, 8.26, repro,
2004-06-04,-0.96, 0.85, -1.91, 1.99, 1.86, 8.32, repro,
2004-06-05,-3.07, -1.15, -9.14, 1.95, 1.92, 8.14, repro,
2004-06-06,-0.06, -0.38, -0.82, 1.89, 1.82, 7.90, repro,
2004-06-07,-1.21, 2.51, -2.90, 1.87, 1.79, 7.83, repro,
2004-06-08,-0.71, 3.51, -2.73, 1.90, 1.82, 7.93, repro,
2004-06-09,-0.30, 0.22, 4.16, 1.86, 1.76, 7.75, repro,
2004-06-10,-1.38, -1.89, 1.59, 2.11, 2.19, 8.78, repro,
2004-06-11,0.48, 0.32, -5.68, 1.91, 1.78, 7.96, repro,
2004-06-12,1.24, -1.43, 2.70, 2.08, 2.16, 9.29, repro,
2004-06-13,1.48, 0.67, 1.60, 2.06, 2.04, 8.65, repro,
2004-06-14,1.03, 0.72, -1.98, 1.92, 1.79, 7.92, repro,
2004-06-15,0.54, 4.00, -5.07, 1.90, 1.81, 7.97, repro,
2004-06-16,-1.16, 1.21, -2.72, 2.27, 2.32, 9.72, repro,
2004-06-17,0.25, -1.04, -2.54, 1.97, 1.92, 8.55, repro,
2004-06-18,1.69, 0.07, -2.55, 1.93, 1.83, 8.13, repro,
2004-06-19,0.06, 1.34, -3.18, 1.86, 1.76, 7.76, repro,
2004-06-20,0.84, 0.44, -0.58, 1.86, 1.74, 7.76, repro,
2004-06-21,0.59, 0.73, 13.20, 2.04, 1.97, 8.62, repro,
2004-06-22,-0.89, 1.86, -4.34, 2.17, 2.11, 9.05, repro,
2004-06-23,1.51, 3.26, -2.96, 2.12, 1.98, 8.86, repro,
2004-06-24,1.34, 2.19, -2.84, 2.11, 2.07, 8.89, repro,
2004-06-25,2.41, 5.44, -1.40, 2.03, 2.05, 8.45, repro,
2004-06-26,-0.52, 4.27, -6.74, 1.91, 1.77, 7.94, repro,
2004-06-27,1.66, 4.48, -2.66, 1.96, 1.84, 8.21, repro,
2004-06-28,1.38, 2.00, 6.01, 2.05, 2.01, 8.79, repro,
2004-06-29,3.00, 4.42, -2.88, 2.04, 2.02, 9.09, repro,